DEMXB EDQG-EDDN

Flight info

Callsign DEMXB
Flight time 0h 46m
Altitude 3499
Route 4938N00956E DCT 4939N01005E 4952N01001E 5003N01011E 4951N01059E DCT 4935N01058E DCT 4930N01105E
Aircraft PA24/L-SFGRY/S

Departure

Time 2026-05-04 18:07
Airport Giebelstadt Airport (EDQG)

Arrival

Time 2026-05-04 18:54
Airport Nuremberg Airport (EDDN)
Time Latitude Longitude Altitude Speed Heading
2026-05-04 17:50 49.65591 9.97294 982 ft 0 kts 180°
2026-05-04 17:54 49.65590 9.97294 982 ft 1 kts 180°
2026-05-04 17:54 49.65587 9.97294 980 ft 1 kts 165°
2026-05-04 17:54 49.65575 9.97309 986 ft 3 kts 114°
2026-05-04 17:55 49.65587 9.97363 985 ft 6 kts 49°
2026-05-04 17:55 49.65599 9.97414 982 ft 3 kts 74°
2026-05-04 17:55 49.65612 9.97448 985 ft 5 kts 54°
2026-05-04 17:55 49.65631 9.97487 981 ft 3 kts 58°
2026-05-04 17:56 49.65654 9.97543 983 ft 6 kts 44°
2026-05-04 17:56 49.65669 9.97565 987 ft 1 kts 44°
2026-05-04 17:56 49.65685 9.97606 982 ft 8 kts 77°
2026-05-04 17:56 49.65690 9.97718 976 ft 13 kts 97°
2026-05-04 17:57 49.65655 9.97830 976 ft 8 kts 141°
2026-05-04 17:57 49.65605 9.97881 980 ft 10 kts 161°
2026-05-04 17:57 49.65538 9.97899 981 ft 9 kts 181°
2026-05-04 17:57 49.65484 9.97886 982 ft 7 kts 188°
2026-05-04 17:58 49.65431 9.97870 983 ft 9 kts 192°
2026-05-04 17:58 49.65364 9.97847 981 ft 12 kts 191°
2026-05-04 17:58 49.65281 9.97818 980 ft 12 kts 194°
2026-05-04 17:58 49.65207 9.97798 979 ft 7 kts 186°
2026-05-04 17:59 49.65161 9.97843 977 ft 9 kts 123°
2026-05-04 17:59 49.65140 9.97895 981 ft 0 kts 121°
2026-05-04 18:04 49.65114 9.97962 981 ft 10 kts 121°
2026-05-04 18:05 49.65081 9.98048 979 ft 5 kts 124°
2026-05-04 18:05 49.65041 9.98082 977 ft 9 kts 167°
2026-05-04 18:05 49.65009 9.98057 976 ft 8 kts 259°
2026-05-04 18:05 49.64993 9.97942 976 ft 13 kts 257°
2026-05-04 18:06 49.64960 9.97701 986 ft 11 kts 256°
2026-05-04 18:06 49.64922 9.97438 983 ft 46 kts 257°
2026-05-04 18:06 49.64818 9.96687 1004 ft 87 kts 257°
2026-05-04 18:07 49.64682 9.95749 1132 ft 91 kts 257°
2026-05-04 18:07 49.64535 9.94775 1289 ft 98 kts 257°
2026-05-04 18:07 49.64345 9.93758 1527 ft 99 kts 239°
2026-05-04 18:07 49.63718 9.93456 1681 ft 108 kts 167°
2026-05-04 18:08 49.63000 9.93741 1940 ft 104 kts 165°
2026-05-04 18:08 49.62406 9.94318 2081 ft 105 kts 115°
2026-05-04 18:08 49.62314 9.95390 2265 ft 101 kts 86°
2026-05-04 18:08 49.62331 9.96490 2395 ft 105 kts 83°
2026-05-04 18:09 49.62512 9.98747 2641 ft 104 kts 75°
2026-05-04 18:09 49.62907 10.00987 2724 ft 118 kts 70°
2026-05-04 18:10 49.63108 10.02237 2762 ft 122 kts 74°
2026-05-04 18:10 49.63308 10.03522 2806 ft 124 kts 74°
2026-05-04 18:10 49.63521 10.04840 2790 ft 130 kts 73°
2026-05-04 18:10 49.63725 10.06194 2859 ft 128 kts 76°
2026-05-04 18:11 49.64086 10.07411 2891 ft 128 kts 44°
2026-05-04 18:11 49.64885 10.07991 2917 ft 128 kts
2026-05-04 18:11 49.65758 10.07767 2921 ft 129 kts 345°
2026-05-04 18:11 49.66611 10.07378 2952 ft 129 kts 343°
2026-05-04 18:12 49.67469 10.06969 2970 ft 130 kts 343°
2026-05-04 18:12 49.68344 10.06530 2951 ft 133 kts 343°
2026-05-04 18:12 49.69233 10.06168 2971 ft 132 kts 347°
2026-05-04 18:12 49.70133 10.05820 2970 ft 133 kts 346°
2026-05-04 18:13 49.71032 10.05473 2981 ft 133 kts 346°
2026-05-04 18:13 49.71929 10.05115 2967 ft 133 kts 347°
2026-05-04 18:13 49.73768 10.04688 2976 ft 134 kts 355°
2026-05-04 18:14 49.74707 10.04595 2956 ft 136 kts 357°
2026-05-04 18:14 49.75644 10.04531 2979 ft 135 kts 357°
2026-05-04 18:14 49.76578 10.04365 2959 ft 136 kts 350°
2026-05-04 18:15 49.78458 10.03816 2916 ft 137 kts 350°
2026-05-04 18:15 49.80337 10.03287 2882 ft 138 kts 349°
2026-05-04 18:15 49.81258 10.02979 2874 ft 136 kts 347°
2026-05-04 18:16 49.82185 10.02659 2847 ft 137 kts 347°
2026-05-04 18:16 49.83115 10.02350 2840 ft 136 kts 348°
2026-05-04 18:16 49.84043 10.02062 2828 ft 136 kts 349°
2026-05-04 18:17 49.85917 10.01638 2809 ft 137 kts 358°
2026-05-04 18:17 49.86812 10.02043 2815 ft 136 kts 27°
2026-05-04 18:17 49.88453 10.03570 2832 ft 134 kts 31°
2026-05-04 18:18 49.89201 10.04331 2970 ft 125 kts 33°
2026-05-04 18:18 49.89892 10.05080 3140 ft 116 kts 34°
2026-05-04 18:18 49.90545 10.05760 3293 ft 111 kts 31°
2026-05-04 18:18 49.91189 10.06412 3399 ft 110 kts 30°
2026-05-04 18:19 49.92519 10.07633 3504 ft 116 kts 29°
2026-05-04 18:19 49.93220 10.08302 3550 ft 118 kts 32°
2026-05-04 18:19 49.93916 10.08993 3564 ft 123 kts 31°
2026-05-04 18:20 49.94648 10.09701 3597 ft 125 kts 31°
2026-05-04 18:20 49.95398 10.10396 3632 ft 127 kts 28°
2026-05-04 18:20 49.96184 10.11063 3623 ft 130 kts 28°
2026-05-04 18:20 49.96970 10.11770 3644 ft 131 kts 30°
2026-05-04 18:21 49.97760 10.12490 3664 ft 132 kts 26°
2026-05-04 18:21 49.98580 10.13118 3700 ft 131 kts 25°
2026-05-04 18:21 49.99415 10.13726 3693 ft 133 kts 23°
2026-05-04 18:21 50.00253 10.14332 3740 ft 132 kts 24°
2026-05-04 18:22 50.01079 10.14977 3751 ft 134 kts 27°
2026-05-04 18:22 50.01896 10.15681 3771 ft 134 kts 29°
2026-05-04 18:22 50.02698 10.16443 3769 ft 135 kts 32°
2026-05-04 18:22 50.03397 10.17225 3780 ft 135 kts 36°
2026-05-04 18:23 50.04171 10.18056 3784 ft 136 kts 26°
2026-05-04 18:23 50.04987 10.18801 3742 ft 139 kts 47°
2026-05-04 18:23 50.05182 10.20232 3697 ft 143 kts 102°
2026-05-04 18:23 50.04863 10.21695 3703 ft 143 kts 109°
2026-05-04 18:24 50.04507 10.23132 3716 ft 142 kts 110°
2026-05-04 18:24 50.04126 10.24560 3700 ft 143 kts 111°
2026-05-04 18:24 50.03737 10.25980 3713 ft 143 kts 110°
2026-05-04 18:24 50.03391 10.27425 3712 ft 142 kts 109°
2026-05-04 18:25 50.03039 10.28861 3720 ft 142 kts 110°
2026-05-04 18:25 50.02661 10.30285 3720 ft 143 kts 111°
2026-05-04 18:25 50.02297 10.31695 3721 ft 142 kts 110°
2026-05-04 18:25 50.01935 10.33125 3731 ft 142 kts 109°
2026-05-04 18:26 50.01590 10.34571 3726 ft 143 kts 109°
2026-05-04 18:26 50.01252 10.36034 3695 ft 145 kts 109°
2026-05-04 18:26 50.00917 10.37494 3703 ft 143 kts 108°
2026-05-04 18:26 50.00595 10.38977 3658 ft 145 kts 107°
2026-05-04 18:27 50.00267 10.40451 3660 ft 144 kts 108°
2026-05-04 18:27 49.99936 10.41929 3633 ft 145 kts 108°
2026-05-04 18:27 49.99594 10.43408 3623 ft 145 kts 109°
2026-05-04 18:27 49.99250 10.44878 3612 ft 145 kts 107°
2026-05-04 18:28 49.98933 10.46368 3605 ft 145 kts 106°
2026-05-04 18:28 49.98632 10.47857 3596 ft 144 kts 107°
2026-05-04 18:28 49.98420 10.48838 3586 ft 145 kts 108°
2026-05-04 18:28 49.98075 10.50312 3578 ft 145 kts 108°
2026-05-04 18:29 49.97739 10.51784 3566 ft 145 kts 108°
2026-05-04 18:29 49.97413 10.53274 3549 ft 146 kts 108°
2026-05-04 18:29 49.97026 10.54735 3533 ft 146 kts 112°
2026-05-04 18:29 49.96607 10.56170 3526 ft 146 kts 114°
2026-05-04 18:30 49.95737 10.59005 3492 ft 146 kts 114°
2026-05-04 18:30 49.95330 10.60447 3481 ft 145 kts 112°
2026-05-04 18:30 49.94940 10.61895 3466 ft 146 kts 111°
2026-05-04 18:31 49.94566 10.63357 3469 ft 145 kts 109°
2026-05-04 18:31 49.94218 10.64828 3457 ft 145 kts 109°
2026-05-04 18:31 49.93854 10.66293 3442 ft 145 kts 110°
2026-05-04 18:31 49.93479 10.67744 3438 ft 145 kts 111°
2026-05-04 18:32 49.93098 10.69196 3420 ft 145 kts 111°
2026-05-04 18:32 49.92726 10.70654 3423 ft 145 kts 110°
2026-05-04 18:32 49.92360 10.72118 3422 ft 145 kts 110°
2026-05-04 18:32 49.91963 10.73559 3418 ft 144 kts 112°
2026-05-04 18:33 49.91552 10.74968 3432 ft 143 kts 114°
2026-05-04 18:33 49.91114 10.76367 3416 ft 144 kts 115°
2026-05-04 18:33 49.90675 10.77762 3420 ft 143 kts 112°
2026-05-04 18:33 49.90298 10.79169 3412 ft 144 kts 111°
2026-05-04 18:34 49.89928 10.80614 3394 ft 143 kts 110°
2026-05-04 18:34 49.89538 10.82034 3392 ft 143 kts 113°
2026-05-04 18:34 49.89147 10.83460 3379 ft 144 kts 111°
2026-05-04 18:34 49.88777 10.84899 3381 ft 143 kts 110°
2026-05-04 18:35 49.88403 10.86329 3370 ft 144 kts 110°
2026-05-04 18:35 49.88042 10.87774 3366 ft 143 kts 110°
2026-05-04 18:35 49.87685 10.89209 3363 ft 143 kts 110°
2026-05-04 18:35 49.87328 10.90653 3359 ft 143 kts 109°
2026-05-04 18:36 49.86993 10.92103 3363 ft 143 kts 107°
2026-05-04 18:36 49.86669 10.93559 3359 ft 143 kts 108°
2026-05-04 18:36 49.86324 10.95002 3354 ft 143 kts 110°
2026-05-04 18:36 49.85949 10.96424 3348 ft 142 kts 110°
2026-05-04 18:37 49.85560 10.97832 3340 ft 142 kts 115°
2026-05-04 18:37 49.84876 10.98872 3385 ft 140 kts 154°
2026-05-04 18:37 49.83916 10.99137 3333 ft 144 kts 178°
2026-05-04 18:37 49.82904 10.99109 3313 ft 146 kts 182°
2026-05-04 18:38 49.81898 10.98965 3330 ft 145 kts 188°
2026-05-04 18:38 49.80889 10.98755 3303 ft 147 kts 187°
2026-05-04 18:38 49.79883 10.98566 3318 ft 145 kts 186°
2026-05-04 18:38 49.78876 10.98400 3305 ft 146 kts 187°
2026-05-04 18:39 49.77871 10.98225 3305 ft 145 kts 186°
2026-05-04 18:39 49.76870 10.98064 3302 ft 145 kts 186°
2026-05-04 18:39 49.75879 10.97913 3296 ft 144 kts 185°
2026-05-04 18:39 49.74887 10.97754 3315 ft 143 kts 186°
2026-05-04 18:40 49.73885 10.97621 3300 ft 145 kts 184°
2026-05-04 18:40 49.72885 10.97498 3319 ft 144 kts 185°
2026-05-04 18:40 49.71888 10.97366 3320 ft 144 kts 185°
2026-05-04 18:40 49.70885 10.97248 3311 ft 144 kts 184°
2026-05-04 18:41 49.69879 10.97156 3256 ft 146 kts 183°
2026-05-04 18:41 49.68863 10.97065 3189 ft 147 kts 183°
2026-05-04 18:41 49.67837 10.96985 3144 ft 147 kts 182°
2026-05-04 18:41 49.66819 10.96904 3098 ft 147 kts 182°
2026-05-04 18:42 49.65802 10.96828 3023 ft 147 kts 180°
2026-05-04 18:42 49.64782 10.96795 2959 ft 146 kts 181°
2026-05-04 18:42 49.63759 10.96668 2873 ft 149 kts 185°
2026-05-04 18:42 49.62725 10.96511 2820 ft 148 kts 185°
2026-05-04 18:43 49.61699 10.96331 2752 ft 148 kts 186°
2026-05-04 18:43 49.60667 10.96177 2683 ft 149 kts 184°
2026-05-04 18:43 49.59627 10.96053 2586 ft 151 kts 184°
2026-05-04 18:43 49.58579 10.95963 2496 ft 151 kts 175°
2026-05-04 18:44 49.57682 10.96667 2421 ft 148 kts 132°
2026-05-04 18:44 49.57208 10.97432 2335 ft 149 kts 130°
2026-05-04 18:44 49.56254 10.98956 2241 ft 147 kts 132°
2026-05-04 18:44 49.55539 11.00065 2149 ft 148 kts 132°
2026-05-04 18:45 49.54807 11.01172 2145 ft 145 kts 134°
2026-05-04 18:45 49.54067 11.02200 2149 ft 142 kts 135°
2026-05-04 18:45 49.53371 11.03233 2165 ft 138 kts 132°
2026-05-04 18:45 49.52679 11.04282 2092 ft 138 kts 132°
2026-05-04 18:46 49.52089 11.05323 2008 ft 123 kts 121°
2026-05-04 18:46 49.51736 11.06457 1915 ft 114 kts 104°
2026-05-04 18:46 49.51518 11.07579 1870 ft 104 kts 102°
2026-05-04 18:46 49.51331 11.08627 1792 ft 100 kts 102°
2026-05-04 18:47 49.51156 11.09652 1717 ft 97 kts 99°
2026-05-04 18:47 49.50997 11.10649 1670 ft 94 kts 98°
2026-05-04 18:47 49.50860 11.11625 1634 ft 92 kts 95°
2026-05-04 18:47 49.50753 11.12591 1652 ft 92 kts 94°
2026-05-04 18:48 49.50663 11.13555 1682 ft 91 kts 92°
2026-05-04 18:48 49.50594 11.14528 1652 ft 91 kts 91°
2026-05-04 18:48 49.50546 11.15492 1651 ft 90 kts 84°
2026-05-04 18:48 49.50507 11.16467 1698 ft 93 kts 92°
2026-05-04 18:49 49.50691 11.17373 1757 ft 89 kts 40°
2026-05-04 18:49 49.51243 11.17573 1808 ft 84 kts 337°
2026-05-04 18:49 49.51585 11.16884 1818 ft 88 kts 278°
2026-05-04 18:49 49.51346 11.16051 1832 ft 93 kts 218°
2026-05-04 18:50 49.50730 11.16128 1786 ft 98 kts 134°
2026-05-04 18:50 49.50630 11.17104 1800 ft 94 kts 62°
2026-05-04 18:50 49.51130 11.17585 1823 ft 90 kts 348°
2026-05-04 18:50 49.51459 11.16899 1814 ft 94 kts 259°
2026-05-04 18:51 49.50926 11.16415 1802 ft 100 kts 176°
2026-05-04 18:51 49.50271 11.16580 1849 ft 93 kts 171°
2026-05-04 18:51 49.49607 11.16561 1789 ft 96 kts 193°
2026-05-04 18:51 49.49147 11.15896 1715 ft 93 kts 259°
2026-05-04 18:52 49.49144 11.14974 1690 ft 83 kts 282°
2026-05-04 18:52 49.49238 11.14118 1659 ft 81 kts 284°
2026-05-04 18:52 49.49337 11.13261 1575 ft 82 kts 282°
2026-05-04 18:52 49.49411 11.12391 1471 ft 81 kts 281°
2026-05-04 18:53 49.49508 11.11527 1383 ft 82 kts 283°
2026-05-04 18:53 49.49584 11.10715 1322 ft 74 kts 283°
2026-05-04 18:53 49.49661 11.09939 1197 ft 73 kts 281°
2026-05-04 18:53 49.49734 11.09190 1087 ft 69 kts 281°
2026-05-04 18:54 49.49795 11.08572 1030 ft 48 kts 279°
2026-05-04 18:54 49.49833 11.08164 1027 ft 30 kts 281°
2026-05-04 18:54 49.49862 11.07853 1028 ft 30 kts 279°
2026-05-04 18:54 49.49901 11.07482 1028 ft 40 kts 279°
2026-05-04 18:55 49.49939 11.07090 1021 ft 19 kts 278°
2026-05-04 18:55 49.49860 11.07027 1019 ft 0 kts 157°
2026-05-04 18:57 49.49851 11.07032 1019 ft 6 kts 157°
2026-05-04 18:57 49.49801 11.07062 1019 ft 7 kts 160°
2026-05-04 18:58 49.49776 11.07077 1019 ft 4 kts 152°
2026-05-04 18:58 49.49757 11.07098 1020 ft 2 kts 134°
2026-05-04 18:58 49.49746 11.07125 1020 ft 3 kts 109°
2026-05-04 18:58 49.49742 11.07153 1021 ft 2 kts 99°
2026-05-04 18:59 49.49739 11.07184 1021 ft 2 kts 102°
2026-05-04 18:59 49.49733 11.07207 1022 ft 3 kts 123°
2026-05-04 18:59 49.49722 11.07224 1022 ft 1 kts 143°
2026-05-04 18:59 49.49696 11.07232 1022 ft 9 kts 187°
2026-05-04 19:00 49.49689 11.07230 1022 ft 2 kts 188°
2026-05-04 19:00 49.49649 11.07221 1022 ft 6 kts 189°
2026-05-04 19:00 49.49622 11.07216 1022 ft 3 kts 187°
2026-05-04 19:00 49.49596 11.07210 1022 ft 6 kts 189°
2026-05-04 19:01 49.49558 11.07200 1022 ft 4 kts 189°
2026-05-04 19:01 49.49531 11.07194 1021 ft 5 kts 187°
2026-05-04 19:01 49.49511 11.07187 1021 ft 3 kts 212°
2026-05-04 19:01 49.49504 11.07171 1021 ft 2 kts 259°
2026-05-04 19:02 49.49506 11.07132 1021 ft 5 kts 277°
2026-05-04 19:02 49.49511 11.07078 1021 ft 6 kts 276°
2026-05-04 19:02 49.49517 11.07011 1020 ft 6 kts 278°
2026-05-04 19:02 49.49522 11.06965 1020 ft 3 kts 270°
2026-05-04 19:03 49.49510 11.06941 1021 ft 3 kts 195°
2026-05-04 19:03 49.49479 11.06934 1020 ft 7 kts 189°
2026-05-04 19:03 49.49466 11.06901 1019 ft 4 kts 263°
2026-05-04 19:03 49.49461 11.06879 1018 ft 0 kts 314°
2026-05-04 19:04 49.49464 11.06877 1019 ft 0 kts
2026-05-04 19:04 49.49468 11.06884 1019 ft 0 kts 101°